Weather History for KONP - February, 2013

Change the Weather History Date:

Thursday, February 7, 2013

  Actual Average Record
Temperature  
Mean Temperature 40 °F -  
Max Temperature 44 °F 50 °F 64 °F (2006)
Min Temperature 35 °F 38 °F 26 °F (2001)
Degree Days  
Heating Degree Days 26    
Moisture  
Dew Point 38 °F    
Average Humidity 89    
Maximum Humidity 100    
Minimum Humidity 76    
Precipitation  
Precipitation 0.06 in - - ()
Sea Level Pressure  
Sea Level Pressure 30.04 in    
Wind  
Wind Speed 7 mph (SE)    
Max Wind Speed 12 mph    
Max Gust Speed 16 mph    
Visibility 8 miles    
Events Fog , Rain    
Averages and records for this station are not official NWS values.
T = Trace of Precipitation, MM = Missing Value Source: NWS Daily Summary

Daily Weather History Graph

Daily Weather History Graph

Search for Another Location

Airport or City:

Trip Planner

Search our weather history database for the weather conditions in past years. The results will help you decide how hot, cold, wet, or windy it might be!

Date:

Astronomy

Feb. 07, 2013 Rise Set
Actual Time 7:27 AM PST 5:34 PM PST
Civil Twilight 6:56 AM PST 6:04 PM PST
Nautical Twilight 6:22 AM PST 6:39 PM PST
Astronomical Twilight 5:48 AM PST 7:13 PM PST
Moon 5:15 AM PST (2/7) 3:02 PM PST (2/7)
Length of Visible Light 11h 08m
Length of Day
10h 07m
Waning Crescent, 8% of the Moon is Illuminated
Feb 7
Waning Crescent
Feb 9
New
Feb 17
First Quarter
Feb 25
Full
Mar 4
Last Quarter

Hourly Weather History & Observations

Time (PST) Temp. Windchill Dew Point Humidity Pressure Visibility Wind Dir Wind Speed Gust Speed Precip Events Conditions
12:15 AM 41.0 °F 34.3 °F 39.2 °F 93% 29.98 in 7.0 mi South 11.5 mph - N/A   Mostly Cloudy
12:35 AM 41.0 °F 35.2 °F 39.2 °F 93% 29.98 in 7.0 mi SSW 9.2 mph - N/A   Overcast
12:55 AM 44.6 °F 40.2 °F 39.2 °F 81% 29.98 in 7.0 mi WSW 8.1 mph - N/A   Overcast
1:15 AM 44.6 °F 39.2 °F 39.2 °F 81% 29.99 in 7.0 mi WSW 10.4 mph - N/A   Overcast
1:35 AM 44.6 °F 40.2 °F 37.4 °F 76% 29.99 in 7.0 mi WSW 8.1 mph 16.1 mph N/A   Overcast
1:55 AM 44.6 °F 39.7 °F 37.4 °F 76% 30.00 in 7.0 mi WSW 9.2 mph - N/A   Overcast
2:15 AM 44.6 °F 41.4 °F 37.4 °F 76% 30.01 in 7.0 mi WSW 5.8 mph - N/A   Overcast
2:35 AM 44.6 °F 42.2 °F 37.4 °F 76% 30.01 in 7.0 mi West 4.6 mph - N/A   Overcast
2:55 AM 42.8 °F 38.0 °F 37.4 °F 81% 30.01 in 7.0 mi West 8.1 mph - N/A   Mostly Cloudy
3:15 AM 42.8 °F 39.3 °F 37.4 °F 81% 30.01 in 7.0 mi SSE 5.8 mph - N/A   Scattered Clouds
3:35 AM 41.0 °F 39.0 °F 37.4 °F 87% 30.01 in 10.0 mi SSE 3.5 mph - N/A   Mostly Cloudy
3:55 AM 41.0 °F 37.1 °F 37.4 °F 87% 30.01 in 10.0 mi South 5.8 mph - N/A   Overcast
4:15 AM 41.0 °F 37.1 °F 37.4 °F 87% 30.01 in 10.0 mi SE 5.8 mph - N/A   Overcast
4:35 AM 41.0 °F 37.1 °F 37.4 °F 87% 30.01 in 10.0 mi ESE 5.8 mph - N/A Rain Light Rain
4:55 AM 41.0 °F 35.8 °F 37.4 °F 87% 30.01 in 10.0 mi SE 8.1 mph - N/A   Light Drizzle
5:15 AM 39.2 °F 35.0 °F 37.4 °F 93% 30.02 in 10.0 mi SE 5.8 mph - N/A   Scattered Clouds
5:35 AM 39.2 °F 35.0 °F 37.4 °F 93% 30.02 in 7.0 mi SSE 5.8 mph - 0.01 in Rain Rain
5:55 AM 39.2 °F 34.2 °F 37.4 °F 93% 30.02 in 10.0 mi SE 6.9 mph - 0.01 in   Mostly Cloudy
6:15 AM 37.4 °F 32.1 °F 35.6 °F 93% 30.01 in 10.0 mi ESE 6.9 mph - N/A   Mostly Cloudy
6:35 AM 37.4 °F 31.4 °F 35.6 °F 93% 30.02 in 10.0 mi ESE 8.1 mph - N/A   Scattered Clouds
6:55 AM 37.4 °F 32.1 °F 35.6 °F 93% 30.02 in 10.0 mi SE 6.9 mph - N/A   Mostly Cloudy
7:15 AM 37.4 °F 32.1 °F 35.6 °F 93% 30.01 in 10.0 mi ESE 6.9 mph - N/A   Mostly Cloudy
7:35 AM 37.4 °F 32.8 °F 35.6 °F 93% 30.01 in 10.0 mi ESE 5.8 mph - N/A   Scattered Clouds
7:55 AM 37.4 °F 32.8 °F 35.6 °F 93% 30.02 in 10.0 mi SE 5.8 mph - N/A   Clear
8:15 AM 37.4 °F 32.8 °F 35.6 °F 93% 30.02 in 10.0 mi SE 5.8 mph - N/A   Clear
8:35 AM 39.2 °F 34.2 °F 37.4 °F 93% 30.03 in 10.0 mi SE 6.9 mph - N/A   Scattered Clouds
8:55 AM 41.0 °F 36.4 °F 37.4 °F 87% 30.03 in 10.0 mi SSE 6.9 mph - N/A   Overcast
9:15 AM 41.0 °F 36.4 °F 37.4 °F 87% 30.03 in 5.0 mi SE 6.9 mph - 0.01 in Rain Light Rain
9:35 AM 41.0 °F 36.4 °F 37.4 °F 87% 30.04 in 10.0 mi SSE 6.9 mph - 0.01 in   Drizzle
9:55 AM 41.0 °F 37.1 °F 37.4 °F 87% 30.04 in 10.0 mi SSE 5.8 mph - 0.01 in Rain Light Rain
10:15 AM 41.0 °F 38.0 °F 37.4 °F 87% 30.04 in 10.0 mi SSE 4.6 mph - N/A   Overcast
10:35 AM 41.0 °F 37.1 °F 37.4 °F 87% 30.04 in 10.0 mi SSE 5.8 mph - N/A Rain Light Rain
10:55 AM 42.8 °F 38.6 °F 39.2 °F 87% 30.04 in 10.0 mi SE 6.9 mph - N/A   Mostly Cloudy
11:15 AM 41.0 °F 37.1 °F 37.4 °F 87% 30.04 in 10.0 mi SSE 5.8 mph - N/A   Scattered Clouds
11:35 AM 42.8 °F 41.1 °F 37.4 °F 81% 30.04 in 10.0 mi SE 3.5 mph - N/A   Mostly Cloudy
11:55 AM 42.8 °F 38.6 °F 37.4 °F 81% 30.03 in 10.0 mi SSE 6.9 mph - N/A   Overcast
12:15 PM 42.8 °F 39.3 °F 37.4 °F 81% 30.03 in 10.0 mi SSE 5.8 mph - N/A   Overcast
12:35 PM 42.8 °F 38.6 °F 39.2 °F 87% 30.03 in 10.0 mi SSE 6.9 mph - N/A   Overcast
12:55 PM 42.8 °F 39.3 °F 39.2 °F 87% 30.03 in 10.0 mi SSE 5.8 mph - N/A   Overcast
1:15 PM 44.6 °F 40.7 °F 37.4 °F 76% 30.02 in 10.0 mi South 6.9 mph - N/A Rain Light Rain
1:35 PM 42.8 °F 36.6 °F 39.2 °F 87% 30.02 in 7.0 mi SSW 11.5 mph - N/A   Light Drizzle
1:55 PM 41.0 °F 37.1 °F 39.2 °F 93% 30.02 in 4.0 mi SSW 5.8 mph - N/A   Drizzle
2:15 PM 41.0 °F 38.0 °F 39.2 °F 93% 30.02 in 2.5 mi WSW 4.6 mph - 0.01 in Rain Rain
2:35 PM 41.0 °F 35.8 °F 39.2 °F 93% 30.02 in 3.0 mi SW 8.1 mph - 0.02 in Rain Light Rain
2:55 PM 41.0 °F - 39.2 °F 93% 30.02 in 5.0 mi Calm Calm - 0.03 in   Drizzle
3:35 PM 42.8 °F 41.1 °F 39.2 °F 87% 30.03 in 10.0 mi SE 3.5 mph - N/A   Light Drizzle
3:55 PM 41.0 °F - 39.2 °F 93% 30.03 in 5.0 mi Calm Calm - 0.01 in   Drizzle
4:15 PM 42.8 °F 41.1 °F 39.2 °F 87% 30.03 in 10.0 mi SE 3.5 mph - N/A Rain Light Rain
4:35 PM 42.8 °F - 39.2 °F 87% 30.03 in 10.0 mi Calm Calm - N/A   Overcast
4:55 PM 41.0 °F 39.0 °F 39.2 °F 93% 30.04 in 10.0 mi South 3.5 mph - N/A   Drizzle
5:15 PM 41.0 °F - 39.2 °F 93% 30.05 in 10.0 mi Calm Calm - N/A   Light Drizzle
5:35 PM 41.0 °F - 39.2 °F 93% 30.05 in 10.0 mi Calm Calm - N/A   Light Drizzle
5:55 PM 41.0 °F - 39.2 °F 93% 30.06 in 10.0 mi Calm Calm - N/A   Overcast
6:15 PM 41.0 °F - 37.4 °F 87% 30.06 in 10.0 mi Calm Calm - N/A   Overcast
6:35 PM 39.2 °F - 37.4 °F 93% 30.07 in 10.0 mi Calm Calm - N/A   Overcast
6:55 PM 39.2 °F 37.0 °F 37.4 °F 93% 30.08 in 10.0 mi East 3.5 mph - N/A   Overcast
7:15 PM 41.0 °F 38.0 °F 39.2 °F 93% 30.08 in 10.0 mi East 4.6 mph - N/A   Overcast
7:35 PM 39.2 °F 35.9 °F 37.4 °F 93% 30.09 in 10.0 mi East 4.6 mph - N/A   Overcast
7:55 PM 39.2 °F 35.0 °F 37.4 °F 93% 30.10 in 10.0 mi East 5.8 mph - N/A   Overcast
8:15 PM 39.2 °F 34.2 °F 37.4 °F 93% 30.10 in 10.0 mi ENE 6.9 mph - N/A   Scattered Clouds
8:35 PM 37.4 °F 33.8 °F 35.6 °F 93% 30.11 in 10.0 mi ENE 4.6 mph - N/A   Clear
8:55 PM 37.4 °F 32.8 °F 37.4 °F 100% 30.12 in 10.0 mi ENE 5.8 mph - N/A   Clear
9:15 PM 35.6 °F 31.7 °F 35.6 °F 100% 30.12 in 10.0 mi ENE 4.6 mph - N/A   Scattered Clouds
9:35 PM 37.4 °F 32.8 °F 35.6 °F 93% 30.13 in 3.0 mi East 5.8 mph - N/A   Clear
9:55 PM 37.4 °F 32.1 °F 35.6 °F 93% 30.14 in 2.0 mi East 6.9 mph - N/A   Scattered Clouds
10:35 PM 35.6 °F 30.7 °F 35.6 °F 100% 30.14 in 1.8 mi East 5.8 mph - N/A   Scattered Clouds
10:55 PM 35.6 °F - 35.6 °F 100% 30.16 in 1.0 mi Calm Calm - N/A   Mostly Cloudy
11:15 PM 35.6 °F - 33.8 °F 93% 30.16 in 0.8 mi Calm Calm - N/A   Overcast
11:35 PM 35.6 °F 31.7 °F 35.6 °F 100% 30.17 in 0.5 mi East 4.6 mph - N/A Fog Fog
11:55 PM 35.6 °F 32.8 °F 35.6 °F 100% 30.18 in 0.8 mi East 3.5 mph - N/A   Overcast